Location: Fort Worth, Tx
(32.7431°N, 97.3695°W)
Time: 16:32:25
(UTC-04:00)

A-11 Canister half - Pass Details

Date: 24 February 2024
Orbit: 1525 x 1683 km, 47.3° (Epoch: 21 April)

Event Time Altitude Azimuth Distance (km) Brightness Sun altitude
Exits shadow 06:23:33 33° 270° (W) 2,366 9.4 -21.8°
Maximum altitude 06:26:51 43° 229° (SW) 2,052 9.3 -21.1°
Drops below altitude 10° 06:35:36 10° 161° (SSE) 3,764 11.3 -19.2°
Sets 06:38:55 0° 155° (SSE) 4,768 11.9 -18.5°
